TIANWANG 1B (TW-1B)
1 40927U 15051C   19104.56120896  .00015170  00000-0  24594-3 0  9997
2 40927  97.1466 150.3475 0006473 259.6992 245.0035 15.52836115199908
TIANWANG 1A (TW-1A)
1 40928U 15051D   19104.35147860  .00004985  00000-0  12527-3 0  9990
2 40928  97.1535 137.0958 0009846 320.0148 164.7991 15.40379492199115
LAPAN A2
1 40931U 15052B   19101.79232639  .00000366  00000-0 -38120-4 0  9997
2 40931   5.9973 180.9298 0011925 284.4257   4.1118 14.76601884191202
LQSAT
1 40958U 15057A   19104.49058384  .00000043  00000-0  14307-4 0  9996
2 40958  97.9031 175.4295 0019811  90.6300 269.7179 14.73073154189204
CHUBUSAT 2
1 41338U 16012B   19103.68554784 +.00000437 +00000-0 +27354-4 0  9999
2 41338 031.0025 204.2385 0013688 169.8546 190.2368 15.00123014172995
CHUBUSAT 3
1 41339U 16012C   19104.46116948  .00000543  00000-0  35472-4 0  9991
2 41339  31.0098 197.4923 0012947 184.5252 175.5268 15.00301918173102
OUFTI-1
1 41458U 16025C   19104.46238554  .00001474  00000-0  79569-4 0  9994
2 41458  98.1004 188.0051 0166152 215.8801 143.1176 15.05562152162762
E-STAR-2
1 41459U 16025D   19104.46364479  .00001241  00000-0  68162-4 0  9990
2 41459  98.1000 187.7100 0167153 217.2024 141.7518 15.05222868162733
AAUSAT 4
1 41460U 16025E   19104.18698631  .00003041  00000-0  15687-3 0  9994
2 41460  98.0961 188.4978 0158012 211.4078 147.7688 15.07009696162806
NUSAT 1
1 41557U 16033B   19104.51961934  .00001807  00000-0  70748-4 0  9994
2 41557  97.4177 192.4085 0014466 162.0072 198.1682 15.27036416160149
BEESAT 4
1 41619U 16040W   19104.14285396  .00001813  00000-0  80164-4 0  9991
2 41619  97.3739 167.5717 0009777 250.5828 109.4352 15.22937099143880
PRATHAM
1 41783U 16059A   19103.73591653 +.00000065 +00000-0 +21981-4 0  9993
2 41783 098.0745 164.7502 0032592 229.7958 130.0391 14.62983263135905
ALSAT 1N
1 41789U 16059G   19104.39579547  .00000073  00000-0  22929-4 0  9992
2 41789  98.0760 167.2497 0027519 216.6016 143.3306 14.64229105136096
NAYIF 1
1 42017U 17008BX  19103.90317569 +.00002078 +00000-0 +85287-4 0  9995
2 42017 097.4085 171.6628 0007441 052.6878 307.5037 15.25325411119894
LILACSAT-1
1 42725U 98067ME  19087.71781172  .15670676  12603-4  45746-3 0  9992
2 42725  51.6064 319.7683 0009359 299.6698  60.5570 16.44549673105565
MAX VALIER SAT
1 42778U 17036P   19104.11004640  .00001362  00000-0  62748-4 0  9999
2 42778  97.3615 163.1999 0014249  94.9777 265.3086 15.21881075100269
